Time,TemperatureF,DewpointF,PressureIn,WindDirection,WindDirectionDegrees,WindSpeedMPH,WindSpeedGustMPH,Humidity,HourlyPrecipIn,Conditions,Clouds,dailyrainin,SoftwareType,DateUTC
2013-01-15 00:01:00,48.0,3.0,30.33,NE,44,12.0,-999.0,15,-99.99,,,-99.99,,2013-01-15 08:01:00,
2013-01-15 00:22:00,48.0,4.0,30.36,NE,43,9.0,-999.0,16,-99.99,,,-99.99,,2013-01-15 08:22:00,
2013-01-15 00:33:00,48.0,4.0,30.36,NE,43,9.0,-999.0,16,-99.99,,,-99.99,,2013-01-15 08:33:00,
2013-01-15 01:52:00,42.0,11.0,30.39,NNE,17,3.0,-999.0,28,-99.99,,,-99.99,,2013-01-15 09:52:00,
2013-01-15 02:02:00,42.0,11.0,30.39,NNE,17,3.0,-999.0,28,-99.99,,,-99.99,,2013-01-15 10:02:00,
2013-01-15 02:11:00,42.0,11.0,30.39,NNE,17,3.0,-999.0,28,-99.99,,,-99.99,,2013-01-15 10:11:00,
2013-01-15 02:22:00,40.0,14.0,30.39,NNE,14,1.0,-999.0,34,-99.99,,,-99.99,,2013-01-15 10:22:00,
2013-01-15 02:32:00,40.0,14.0,30.39,NNE,14,1.0,-999.0,34,-99.99,,,-99.99,,2013-01-15 10:32:00,
2013-01-15 02:42:00,40.0,14.0,30.39,NNE,14,1.0,-999.0,34,-99.99,,,-99.99,,2013-01-15 10:42:00,
2013-01-15 02:52:00,39.0,12.0,30.39,NNE,14,0.0,-999.0,32,-99.99,,,-99.99,,2013-01-15 10:52:00,
2013-01-15 03:02:00,39.0,12.0,30.39,NNE,14,0.0,-999.0,32,-99.99,,,-99.99,,2013-01-15 11:02:00,
2013-01-15 03:12:00,39.0,12.0,30.39,NNE,14,0.0,-999.0,32,-99.99,,,-99.99,,2013-01-15 11:12:00,
2013-01-15 03:22:00,40.0,12.0,30.39,NNE,14,2.0,-999.0,31,-99.99,,,-99.99,,2013-01-15 11:22:00,
2013-01-15 03:32:00,40.0,12.0,30.39,NNE,14,2.0,-999.0,31,-99.99,,,-99.99,,2013-01-15 11:32:00,
2013-01-15 03:43:00,40.0,12.0,30.39,NNE,14,2.0,-999.0,31,-99.99,,,-99.99,,2013-01-15 11:43:00,
2013-01-15 03:52:00,40.0,12.0,30.39,NNE,14,3.0,-999.0,31,-99.99,,,-99.99,,2013-01-15 11:52:00,
2013-01-15 04:02:00,40.0,12.0,30.39,NNE,14,3.0,-999.0,31,-99.99,,,-99.99,,2013-01-15 12:02:00,
2013-01-15 04:12:00,40.0,12.0,30.39,NNE,14,3.0,-999.0,31,-99.99,,,-99.99,,2013-01-15 12:12:00,
2013-01-15 04:22:00,40.0,12.0,30.39,NNE,14,3.0,-999.0,31,-99.99,,,-99.99,,2013-01-15 12:22:00,
2013-01-15 04:53:00,39.0,14.0,30.38,North,9,0.0,-999.0,35,-99.99,,,-99.99,,2013-01-15 12:53:00,
2013-01-15 05:03:00,39.0,14.0,30.38,North,9,0.0,-999.0,35,-99.99,,,-99.99,,2013-01-15 13:03:00,
2013-01-15 05:12:00,39.0,14.0,30.38,North,9,0.0,-999.0,35,-99.99,,,-99.99,,2013-01-15 13:12:00,
2013-01-15 05:22:00,37.0,14.0,30.37,North,355,2.0,-999.0,39,-99.99,,,-99.99,,2013-01-15 13:22:00,
2013-01-15 05:32:00,37.0,14.0,30.37,North,355,2.0,-999.0,39,-99.99,,,-99.99,,2013-01-15 13:32:00,
2013-01-15 05:43:00,37.0,14.0,30.37,North,355,2.0,-999.0,39,-99.99,,,-99.99,,2013-01-15 13:43:00,
2013-01-15 05:53:00,38.0,12.0,30.39,North,355,2.0,-999.0,34,-99.99,,,-99.99,,2013-01-15 13:53:00,
2013-01-15 06:02:00,38.0,12.0,30.39,North,355,2.0,-999.0,34,-99.99,,,-99.99,,2013-01-15 14:02:00,
2013-01-15 06:12:00,38.0,12.0,30.39,North,355,2.0,-999.0,34,-99.99,,,-99.99,,2013-01-15 14:12:00,
2013-01-15 06:22:00,39.0,11.0,30.39,North,355,5.0,-999.0,31,-99.99,,,-99.99,,2013-01-15 14:22:00,
2013-01-15 06:32:00,39.0,11.0,30.39,North,355,5.0,-999.0,31,-99.99,,,-99.99,,2013-01-15 14:32:00,
2013-01-15 06:43:00,39.0,11.0,30.39,North,355,5.0,-999.0,31,-99.99,,,-99.99,,2013-01-15 14:43:00,
2013-01-15 06:53:00,39.0,11.0,30.39,North,355,5.0,-999.0,31,-99.99,,,-99.99,,2013-01-15 14:53:00,
2013-01-15 07:02:00,39.0,11.0,30.39,North,355,5.0,-999.0,31,-99.99,,,-99.99,,2013-01-15 15:02:00,
2013-01-15 07:23:00,39.0,12.0,30.40,North,360,4.0,-999.0,33,-99.99,,,-99.99,,2013-01-15 15:23:00,
2013-01-15 07:33:00,39.0,12.0,30.40,North,360,4.0,-999.0,33,-99.99,,,-99.99,,2013-01-15 15:33:00,
2013-01-15 07:43:00,39.0,12.0,30.40,North,360,4.0,-999.0,33,-99.99,,,-99.99,,2013-01-15 15:43:00,
2013-01-15 07:53:00,39.0,12.0,30.42,North,360,4.0,-999.0,32,-99.99,,,-99.99,,2013-01-15 15:53:00,
2013-01-15 08:02:00,39.0,12.0,30.42,North,360,4.0,-999.0,32,-99.99,,,-99.99,,2013-01-15 16:02:00,
2013-01-15 08:12:00,39.0,12.0,30.42,North,360,4.0,-999.0,32,-99.99,,,-99.99,,2013-01-15 16:12:00,
2013-01-15 08:22:00,39.0,12.0,30.42,North,360,4.0,-999.0,32,-99.99,,,-99.99,,2013-01-15 16:22:00,
2013-01-15 08:32:00,39.0,12.0,30.42,North,360,4.0,-999.0,32,-99.99,,,-99.99,,2013-01-15 16:32:00,
2013-01-15 08:53:00,44.0,12.0,30.44,North,5,4.0,-999.0,27,-99.99,,,-99.99,,2013-01-15 16:53:00,
2013-01-15 09:03:00,44.0,12.0,30.44,North,5,4.0,-999.0,27,-99.99,,,-99.99,,2013-01-15 17:03:00,
2013-01-15 09:12:00,44.0,12.0,30.44,North,5,4.0,-999.0,27,-99.99,,,-99.99,,2013-01-15 17:12:00,
2013-01-15 09:22:00,48.0,13.0,30.45,North,9,3.0,-999.0,24,-99.99,,,-99.99,,2013-01-15 17:22:00,
2013-01-15 09:32:00,48.0,13.0,30.45,North,9,3.0,-999.0,24,-99.99,,,-99.99,,2013-01-15 17:32:00,
2013-01-15 09:43:00,48.0,13.0,30.45,North,9,3.0,-999.0,24,-99.99,,,-99.99,,2013-01-15 17:43:00,
2013-01-15 09:53:00,51.0,11.0,30.45,North,5,1.0,-999.0,20,-99.99,,,-99.99,,2013-01-15 17:53:00,
2013-01-15 10:02:00,51.0,11.0,30.45,North,5,1.0,-999.0,20,-99.99,,,-99.99,,2013-01-15 18:02:00,
2013-01-15 10:12:00,51.0,11.0,30.45,North,5,1.0,-999.0,20,-99.99,,,-99.99,,2013-01-15 18:12:00,
2013-01-15 10:22:00,54.0,15.0,30.45,North,5,1.0,-999.0,21,-99.99,,,-99.99,,2013-01-15 18:22:00,
2013-01-15 10:33:00,54.0,15.0,30.45,North,5,1.0,-999.0,21,-99.99,,,-99.99,,2013-01-15 18:33:00,
2013-01-15 10:43:00,54.0,15.0,30.45,North,5,1.0,-999.0,21,-99.99,,,-99.99,,2013-01-15 18:43:00,
2013-01-15 10:53:00,56.0,17.0,30.45,SE,142,2.0,-999.0,21,-99.99,,,-99.99,,2013-01-15 18:53:00,
2013-01-15 11:02:00,56.0,17.0,30.45,SE,142,2.0,-999.0,21,-99.99,,,-99.99,,2013-01-15 19:02:00,
2013-01-15 11:12:00,56.0,17.0,30.45,SE,142,2.0,-999.0,21,-99.99,,,-99.99,,2013-01-15 19:12:00,
2013-01-15 11:22:00,59.0,16.0,30.42,NNE,17,2.0,-999.0,18,-99.99,,,-99.99,,2013-01-15 19:22:00,
2013-01-15 11:32:00,59.0,16.0,30.42,NNE,17,2.0,-999.0,18,-99.99,,,-99.99,,2013-01-15 19:32:00,
2013-01-15 11:43:00,59.0,16.0,30.42,NNE,17,2.0,-999.0,18,-99.99,,,-99.99,,2013-01-15 19:43:00,
2013-01-15 11:53:00,60.0,15.0,30.40,SSW,208,7.0,-999.0,17,-99.99,,,-99.99,,2013-01-15 19:53:00,
2013-01-15 12:02:00,60.0,15.0,30.40,SSW,208,7.0,-999.0,17,-99.99,,,-99.99,,2013-01-15 20:02:00,
2013-01-15 12:12:00,60.0,15.0,30.40,SSW,208,7.0,-999.0,17,-99.99,,,-99.99,,2013-01-15 20:12:00,
2013-01-15 12:22:00,58.0,28.0,30.39,SSW,211,5.0,-999.0,31,-99.99,,,-99.99,,2013-01-15 20:22:00,
2013-01-15 12:33:00,58.0,28.0,30.39,SSW,211,5.0,-999.0,31,-99.99,,,-99.99,,2013-01-15 20:33:00,
2013-01-15 12:43:00,58.0,28.0,30.39,SSW,211,5.0,-999.0,31,-99.99,,,-99.99,,2013-01-15 20:43:00,
2013-01-15 12:53:00,57.0,30.0,30.38,WSW,243,6.0,-999.0,35,-99.99,,,-99.99,,2013-01-15 20:53:00,
2013-01-15 13:02:00,57.0,30.0,30.38,WSW,243,6.0,-999.0,35,-99.99,,,-99.99,,2013-01-15 21:02:00,
2013-01-15 13:12:00,57.0,30.0,30.38,WSW,243,6.0,-999.0,35,-99.99,,,-99.99,,2013-01-15 21:12:00,
2013-01-15 13:22:00,57.0,28.0,30.36,NW,310,5.0,-999.0,33,-99.99,,,-99.99,,2013-01-15 21:22:00,
2013-01-15 13:33:00,57.0,28.0,30.36,NW,310,5.0,-999.0,33,-99.99,,,-99.99,,2013-01-15 21:33:00,
2013-01-15 13:43:00,57.0,28.0,30.36,NW,310,5.0,-999.0,33,-99.99,,,-99.99,,2013-01-15 21:43:00,
2013-01-15 13:53:00,58.0,25.0,30.36,West,269,5.0,-999.0,28,-99.99,,,-99.99,,2013-01-15 21:53:00,
2013-01-15 14:02:00,58.0,25.0,30.36,West,269,5.0,-999.0,28,-99.99,,,-99.99,,2013-01-15 22:02:00,
2013-01-15 14:12:00,58.0,25.0,30.36,West,269,5.0,-999.0,28,-99.99,,,-99.99,,2013-01-15 22:12:00,
2013-01-15 14:22:00,59.0,26.0,30.35,WNW,297,6.0,-999.0,28,-99.99,,,-99.99,,2013-01-15 22:22:00,
2013-01-15 14:32:00,59.0,26.0,30.35,WNW,297,6.0,-999.0,28,-99.99,,,-99.99,,2013-01-15 22:32:00,
2013-01-15 14:43:00,59.0,26.0,30.35,WNW,297,6.0,-999.0,28,-99.99,,,-99.99,,2013-01-15 22:43:00,
2013-01-15 14:52:00,59.0,26.0,30.35,WNW,297,6.0,-999.0,28,-99.99,,,-99.99,,2013-01-15 22:52:00,
2013-01-15 15:02:00,59.0,26.0,30.35,WNW,297,6.0,-999.0,28,-99.99,,,-99.99,,2013-01-15 23:02:00,
2013-01-15 15:23:00,58.0,28.0,30.34,WNW,292,7.0,-999.0,31,-99.99,,,-99.99,,2013-01-15 23:23:00,
2013-01-15 15:53:00,58.0,28.0,30.34,WNW,292,7.0,-999.0,31,-99.99,,,-99.99,,2013-01-15 23:53:00,
2013-01-15 16:23:00,56.0,29.0,30.35,WNW,290,6.0,-999.0,36,-99.99,,,-99.99,,2013-01-16 00:23:00,
2013-01-15 16:33:00,56.0,29.0,30.35,WNW,290,6.0,-999.0,36,-99.99,,,-99.99,,2013-01-16 00:33:00,
2013-01-15 16:43:00,56.0,29.0,30.35,WNW,290,6.0,-999.0,36,-99.99,,,-99.99,,2013-01-16 00:43:00,
2013-01-15 16:53:00,56.0,29.0,30.35,WNW,290,6.0,-999.0,36,-99.99,,,-99.99,,2013-01-16 00:53:00,
2013-01-15 17:23:00,53.0,39.0,30.36,WNW,296,4.0,-999.0,58,-99.99,,,-99.99,,2013-01-16 01:23:00,
2013-01-15 17:33:00,53.0,39.0,30.36,WNW,296,4.0,-999.0,58,-99.99,,,-99.99,,2013-01-16 01:33:00,
2013-01-15 17:43:00,53.0,39.0,30.36,WNW,296,4.0,-999.0,58,-99.99,,,-99.99,,2013-01-16 01:43:00,
2013-01-15 17:53:00,52.0,40.0,30.36,West,260,5.0,-999.0,64,-99.99,,,-99.99,,2013-01-16 01:53:00,
2013-01-15 18:02:00,52.0,40.0,30.36,West,260,5.0,-999.0,64,-99.99,,,-99.99,,2013-01-16 02:02:00,
2013-01-15 18:12:00,52.0,40.0,30.36,West,260,5.0,-999.0,64,-99.99,,,-99.99,,2013-01-16 02:12:00,
2013-01-15 18:22:00,51.0,41.0,30.36,NW,315,3.0,-999.0,68,-99.99,,,-99.99,,2013-01-16 02:22:00,
2013-01-15 18:32:00,51.0,41.0,30.36,NW,315,3.0,-999.0,68,-99.99,,,-99.99,,2013-01-16 02:32:00,
2013-01-15 18:43:00,51.0,41.0,30.36,NW,315,3.0,-999.0,68,-99.99,,,-99.99,,2013-01-16 02:43:00,
2013-01-15 18:53:00,51.0,41.0,30.36,NW,315,3.0,-999.0,68,-99.99,,,-99.99,,2013-01-16 02:53:00,
2013-01-15 19:12:00,50.0,41.0,30.37,WNW,299,2.0,-999.0,72,-99.99,,,-99.99,,2013-01-16 03:12:00,
2013-01-15 19:22:00,50.0,41.0,30.37,WNW,299,2.0,-999.0,72,-99.99,,,-99.99,,2013-01-16 03:22:00,
2013-01-15 19:33:00,50.0,41.0,30.37,WNW,299,2.0,-999.0,72,-99.99,,,-99.99,,2013-01-16 03:33:00,
2013-01-15 19:43:00,50.0,41.0,30.37,WNW,299,2.0,-999.0,72,-99.99,,,-99.99,,2013-01-16 03:43:00,
2013-01-15 19:52:00,48.0,39.0,30.37,North,360,3.0,-999.0,72,-99.99,,,-99.99,,2013-01-16 03:52:00,
2013-01-15 20:02:00,48.0,39.0,30.37,North,360,3.0,-999.0,72,-99.99,,,-99.99,,2013-01-16 04:02:00,
2013-01-15 20:12:00,48.0,39.0,30.37,North,360,3.0,-999.0,72,-99.99,,,-99.99,,2013-01-16 04:12:00,
2013-01-15 20:22:00,48.0,39.0,30.37,North,360,3.0,-999.0,72,-99.99,,,-99.99,,2013-01-16 04:22:00,
2013-01-15 20:32:00,46.0,37.0,30.36,North,355,2.0,-999.0,70,-99.99,,,-99.99,,2013-01-16 04:32:00,
2013-01-15 20:42:00,46.0,37.0,30.36,North,355,2.0,-999.0,70,-99.99,,,-99.99,,2013-01-16 04:42:00,
2013-01-15 20:52:00,44.0,34.0,30.37,SSE,158,2.0,-999.0,69,-99.99,,,-99.99,,2013-01-16 04:52:00,
2013-01-15 21:03:00,44.0,34.0,30.37,SSE,158,2.0,-999.0,69,-99.99,,,-99.99,,2013-01-16 05:03:00,
2013-01-15 21:12:00,44.0,34.0,30.37,SSE,158,2.0,-999.0,69,-99.99,,,-99.99,,2013-01-16 05:12:00,
2013-01-15 21:22:00,44.0,34.0,30.37,SSE,158,2.0,-999.0,69,-99.99,,,-99.99,,2013-01-16 05:22:00,